Regional Weather Roundup
Issued by NWS Upton, NY

Current Version | Previous Version | Graphics & Text | Print | Product List | Glossary Off
Versions: 1 2 3 4 5 6 7 8 9 10 11 12 13 14 15 16 17 18 19 20 21 22 23 24 25 26 27
000 ASUS41 KOKX 231805 RWROKX REGIONAL WEATHER ROUNDUP NATIONAL WEATHER SERVICE NEW YORK NY 200 PM EDT SAT JUL 23 2016 NOTE: "FAIR" INDICATES FEW OR NO CLOUDS BELOW 12,000 FEET WITH NO SIGNIFICANT WEATHER AND/OR OBSTRUCTIONS TO VISIBILITY. NYZ071-072-176-178-NJZ106-104-231900- NEW YORK CITY METRO AREA CITY SKY/WX TMP DP RH WIND PRES REMARKS Central Park SUNNY 94 59 31 W8 29.85F HX 93 LaGuardia APRT MOSUNNY 94 58 29 W15G25 29.81F HX 93 Kennedy INTL MOSUNNY 96 54 24 W18G25 29.83F HX 94 Newark/Liberty MOSUNNY 95 59 30 W15G24 29.82F HX 94 BRNX BOT. GARD N/A 93 59 31 SW14 29.84F HX 92 Wall St Helipt PTCLDY 93 59 31 W9G25 29.83F HX 92 Teterboro SUNNY 94 56 27 W12G20 29.81F HX 92 $$ NYZ177-179-078>081-231900- LONG ISLAND NEW YORK CITY SKY/WX TMP DP RH WIND PRES REMARKS FARMINGDALE MOSUNNY 95 56 26 NW14G21 29.82F HX 93 ISLIP MOSUNNY 95 55 26 NW14G24 29.81F HX 93 SHIRLEY SUNNY 96 57 27 W14G23 29.82F HX 95 RIVERHEAD NOT AVBL WESTHAMPTON SUNNY 95 56 26 W15G23 29.82F HX 93 SOUTHAMPTON N/A 93 64 38 NW8 29.77F HX 95 BRIDGEHAMPTON N/A 93 66 40 SW2 29.81F HX 96 EAST HAMPTON FAIR 89 62 40 W14 29.81S HX 90 MONTAUK POINT N/A 85 66 53 W12 29.81F $$ NYZ052-065-067-231900- HUDSON VALLEY CITY SKY/WX TMP DP RH WIND PRES REMARKS WHITE PLAINS MOSUNNY 93 56 28 W14G21 29.83F HX 91 NEWBURGH MOSUNNY 91 63 38 NW14G24 29.86F HX 92 MONTGOMERY MOSUNNY 94 61 33 NW9G24 29.84F HX 94 POUGHKEEPSIE MOSUNNY 94 56 27 W14G26 29.81F HX 92 ALBANY PTSUNNY 91 58 32 W14 29.81F HX 90 $$ NJZ001-105-106-008-010-013-015-019>022-104-231900- NEW JERSEY CITY SKY/WX TMP DP RH WIND PRES REMARKS NEWARK/LIBERTY MOSUNNY 95 59 30 W15G24 29.82F HX 94 TETERBORO SUNNY 94 56 27 W12G20 29.81F HX 92 CALDWELL MOSUNNY 94 55 26 W15G21 29.83F HX 92 MORRISTOWN MOSUNNY 93 61 33 W12 29.84F HX 93 SOMERVILLE SUNNY 94 59 31 NW8 29.84F HX 93 SUSSEX SUNNY 92 57 30 VRB7 29.86F HX 90 ANDOVER N/A 92 56 29 VRB5G17 29.86F HX 90 TRENTON SUNNY 94 61 33 NW10G20 29.86F HX 94 MILLVILLE SUNNY 95 69 42 W12 29.89F HX 100 ATLANTIC CITY MOSUNNY 94 70 45 W12 29.87F HX 100 WRIGHTSTOWN MOSUNNY 94 67 41 NW9 29.83F HX 98 TOMS RIVER PTSUNNY 96 69 41 W15 29.86F HX 102 BELMAR SUNNY 94 61 33 W12G23 29.86F HX 94 $$ PAZ047>061-062-071-231900- EASTERN PENNSYLVANIA CITY SKY/WX TMP DP RH WIND PRES REMARKS PHILADELPHIA MOSUNNY 94 68 42 W14G22 29.88F HX 98 ALLENTOWN SUNNY 95 57 27 W14 29.88F HX 94 SCRANTON MOSUNNY 93 53 25 N16G26 29.89F HX 90 $$ CTZ002-004>006-009-010-012-RIZ004-006-007-MAZ004-011-015-231900- SOUTHERN NEW ENGLAND IN CT CITY SKY/WX TMP DP RH WIND PRES REMARKS BRADLEY INTL MOSUNNY 94 56 27 NW16G25 29.78F HX 92 HARTFORD MOSUNNY 97 58 27 NW14G24 29.78F HX 96 DANBURY MOSUNNY 89 58 34 W12G20 29.84F WTRBRY/OXFORD PTSUNNY 90 61 37 NW9G17 29.87F BRIDGEPORT MOSUNNY 88 65 46 SW17 29.80F HX 90 MERIDEN SUNNY 93 60 33 W9G17 29.80F HX 93 NEW HAVEN MOSUNNY 87 63 44 SW9G18 29.81F CHESTER FAIR 90 59 35 NW12G21 29.82S GROTON MOSUNNY 90 64 42 W16G26 29.78F HX 91 WILLIMANTIC NOT AVBL IN RI CITY SKY/WX TMP DP RH WIND PRES REMARKS PROVIDENCE MOSUNNY 91 63 39 W15G22 29.77S HX 92 BLOCK ISLAND SUNNY N/A N/A N/A W18G25 29.79F WESTERLY MOSUNNY 88 61 40 SW13G22 29.79S IN MA CITY SKY/WX TMP DP RH WIND PRES REMARKS BOSTON MOSUNNY 94 59 31 NW8 29.72F HX 93 WORCESTER MOSUNNY 88 55 32 NW16G22 29.81F WESTFIELD SUNNY 93 56 28 W20G32 29.78F HX 91 PROVINCETOWN MOSUNNY 87 66 49 NE6 29.75F NANTUCKET SUNNY 81 69 67 W14 29.77F $$ ANZ330-335-338-340-345-350-353-355-231900- COASTAL MARINE OBSERVATIONS STATION/POSITION TIME SKY/WX TEMP WIND PRES VSBY WAVE AIR SEA DIR/SP/G HT/PER (UTC) (F) (DEG/KT/KT) (MB) (MI) (FT/S) NY HARB ENTRANCE 1650 80 76 270/ 4/ 4 1010.6 2/ 8 20S FIRE ISLAND 1650 77 75 260/ 8/ 8 1010.5 4/ 7 GREAT SOUTH BAY 1700 83 80 250/ 14/ 17 N/A 23 SSW MONTAUK P 1650 75 72 250/ 12/ 14 1010.1 3/ 7 15 E BARNEGAT LI 1722 76 N/A 3/ 6 HUDSON CANYON 1650 78 77 1011.5 4/ 8 KINGS POINT 1700 86 72 1010.2 EXECUTION ROCKS 1700 84 280/ 8/ 12 N/A CENTRAL LI SOUND 1700 78 73 270/ 14/ 16 N/A 1/ 3 EASTERN LI SOUND 1700 75 68 240/ 14/ 17 N/A ROBBINS REEF 1700 89 290/ 14/ 17 1010.0 $$ >>>>>>>>>>>>>>>>>>>>>>>>>>>> KEY <<<<<<<<<<<<<<<<<<<<<<<<<<< > < > SKY/WX - SKY CONDITION/PRESENT WEATHER < > TMP - TEMPERATURE IN FAHRENHEIT < > DP - DEWPOINT IN FAHRENHEIT < > RH - RELATIVE HUMIDITY IN PERCENT < > WIND - DIRECTION AND SPEED IN MPH < > PRES - MEAN SEA LEVEL PRESSURE IN INCHES OF HG < > WCI - WIND CHILL INDEX < > VSB - VISIBILITY IN MILES < > HX - HEAT INDEX < > TC - TEMPERATURE IN CELSIUS < > VRB - VARIABLE WIND DIRECTION < > < >>>>>>>>>>>>>>>>>>>>>>>>>>>> KEY <<<<<<<<<<<<<<<<<<<<<<<<<<<

USA.gov is the U.S. government's official web portal to all federal, state and local government web resources and services.